Alexandria Borg El Arab, Egypt

12:49 AM EET on April 23, 2018 (GMT +0200)
Alexandria Borg El Arab

Weather History for HEBA - September, 2013

Change the Weather History Date:

Wednesday, September 25, 2013

  Actual Average (HEAX) Record (HEAX)
Temperature  
Mean Temperature 73 °F -  
Max Temperature 82 °F 83 °F 96 °F (2015)
Min Temperature 64 °F 69 °F 60 °F (1997)
Cooling Degree Days 8    
Growing Degree Days 23 (Base 50)    
Moisture  
Dew Point 62 °F    
Average Humidity 68    
Maximum Humidity 94    
Minimum Humidity 48    
Precipitation  
Precipitation 0.00 in - - ()
Sea Level Pressure  
Sea Level Pressure 30.04 in    
Wind  
Wind Speed 5 mph ()    
Max Wind Speed 14 mph    
Max Gust Speed -    
Visibility 6.2 miles    
Events      
Averages and records for this station are not official NWS values.
T = Trace of Precipitation, MM = Missing Value Source: Averaged Metar Reports

Daily Weather History Graph

Daily Weather History Graph

Search for Another Location

Airport or City:

Astronomy

Sep. 25, 2013 Rise Set
Actual Time 5:51 AM EET 5:54 PM EET
Civil Twilight 5:27 AM EET 6:18 PM EET
Nautical Twilight 4:59 AM EET 6:46 PM EET
Astronomical Twilight 4:30 AM EET 7:14 PM EET
Moon 10:04 PM EET (9/25) 11:20 AM EET (9/25)
Length of Visible Light 12h 51m
Length of Day
12h 02m
Waning Gibbous, 66% of the Moon is Illuminated
Sep 25
Waning Gibbous
Sep 27
Last Quarter
Oct 5
New
Oct 12
First Quarter
Oct 19
Full

Hourly Weather History & Observations

Time (EET) Temp. Heat Index Dew Point Humidity Pressure Visibility Wind Dir Wind Speed Gust Speed Precip Events Conditions
12:00 AM 69.8 °F - 62.6 °F 78% 30.01 in - Calm Calm - N/A   Clear
1:00 AM 69.8 °F - 64.4 °F 83% 30.01 in - Calm Calm - N/A   Clear
2:00 AM 68.0 °F - 64.4 °F 88% 30.01 in - Calm Calm - N/A   Clear
3:00 AM 66.2 °F - 62.6 °F 88% 30.01 in - Calm Calm - N/A   Clear
4:00 AM 66.2 °F - 62.6 °F 88% 30.01 in - SSW 6.9 mph - N/A   Clear
5:00 AM 64.4 °F - 60.8 °F 88% 30.01 in - SSW 5.8 mph - N/A   Clear
6:00 AM 64.4 °F - 62.6 °F 94% 30.01 in 6.2 mi SSW 6.9 mph - N/A   Partly Cloudy
7:00 AM 71.6 °F - 64.4 °F 78% 30.04 in 6.2 mi SSW 8.1 mph - N/A   Partly Cloudy
8:00 AM 73.4 °F - 64.4 °F 73% 30.04 in 6.2 mi SSW 8.1 mph - N/A   Partly Cloudy
9:00 AM 75.2 °F - 55.4 °F 50% 30.06 in 6.2 mi SW 5.8 mph - N/A   Partly Cloudy
10:00 AM 77.0 °F - 57.2 °F 50% 30.06 in 6.2 mi WNW 13.8 mph - N/A   Partly Cloudy
11:00 AM 78.8 °F - 59.0 °F 51% 30.06 in 6.2 mi NW 11.5 mph - N/A   Partly Cloudy
12:00 PM 80.6 °F 81.5 °F 60.8 °F 51% 30.06 in 6.2 mi NW 11.5 mph - N/A   Partly Cloudy
1:00 PM 80.6 °F 81.1 °F 59.0 °F 48% 30.06 in 6.2 mi NNW 11.5 mph - N/A   Scattered Clouds
2:00 PM 82.4 °F 83.4 °F 62.6 °F 51% 30.06 in 6.2 mi WNW 13.8 mph - N/A   Partly Cloudy
3:00 PM 82.4 °F 83.4 °F 62.6 °F 51% 30.04 in 6.2 mi NNW 11.5 mph - N/A   Partly Cloudy
4:00 PM 80.6 °F 81.5 °F 60.8 °F 51% 30.04 in 6.2 mi NNW 11.5 mph - N/A   Partly Cloudy
5:00 PM 78.8 °F - 62.6 °F 57% 30.04 in 6.2 mi North 11.5 mph - N/A   Scattered Clouds
6:00 PM 78.8 °F - 62.6 °F 57% 30.04 in 6.2 mi North 11.5 mph - N/A   Partly Cloudy
7:00 PM 77.0 °F - 62.6 °F 61% 30.04 in 6.2 mi North 5.8 mph - N/A   Partly Cloudy
8:00 PM 73.4 °F - 62.6 °F 69% 30.06 in 6.2 mi North 5.8 mph - N/A   Partly Cloudy
9:00 PM 73.4 °F - 62.6 °F 69% 30.06 in - North 5.8 mph - N/A   Clear
10:00 PM 71.6 °F - 62.6 °F 73% 30.06 in - NNE 5.8 mph - N/A   Clear
11:00 PM 69.8 °F - 62.6 °F 78% 30.06 in - North - - N/A   Clear